Year,Month,Day,Hour,Minute,Value (Times are PST for temperature in C)
2010,06,28,07,05,12.40
2010,06,28,07,06,12.40
2010,06,28,07,07,12.40
2010,06,28,07,08,12.50
2010,06,28,07,09,12.50
2010,06,28,07,10,12.50
2010,06,28,07,11,12.50
2010,06,28,07,12,12.60
2010,06,28,07,13,12.60
2010,06,28,07,14,12.70
2010,06,28,07,15,12.70
2010,06,28,07,16,12.80
2010,06,28,07,17,12.80
2010,06,28,07,18,12.80
2010,06,28,07,19,12.90
2010,06,28,07,20,12.90
2010,06,28,07,21,13.00
2010,06,28,07,22,13.00
2010,06,28,07,23,13.00
2010,06,28,07,24,13.10
2010,06,28,07,25,13.10
2010,06,28,07,26,13.20
2010,06,28,07,27,13.20
2010,06,28,07,28,13.20
2010,06,28,07,29,13.30
2010,06,28,07,30,13.30
2010,06,28,07,31,13.30
2010,06,28,07,32,13.30
2010,06,28,07,33,13.30
2010,06,28,07,34,13.30
2010,06,28,07,35,13.30
2010,06,28,07,36,13.30
2010,06,28,07,37,13.40
2010,06,28,07,38,13.30
2010,06,28,07,39,13.30
2010,06,28,07,40,13.40
2010,06,28,07,41,13.40
2010,06,28,07,42,13.50
2010,06,28,07,43,13.50
2010,06,28,07,44,13.50
2010,06,28,07,45,13.50
2010,06,28,07,46,13.60
2010,06,28,07,47,13.60
2010,06,28,07,48,13.60
2010,06,28,07,49,13.60
2010,06,28,07,50,13.60
2010,06,28,07,51,13.70
2010,06,28,07,52,13.70
2010,06,28,07,53,13.70
2010,06,28,07,54,13.70
2010,06,28,07,55,13.80
2010,06,28,07,56,13.90
2010,06,28,07,57,14.00
2010,06,28,07,58,14.00
2010,06,28,07,59,14.10
2010,06,28,08,00,14.20
2010,06,28,08,01,14.20
2010,06,28,08,02,14.30
2010,06,28,08,03,14.40
2010,06,28,08,04,14.50
2010,06,28,08,05,14.60
2010,06,28,08,06,14.60
2010,06,28,08,07,14.70
2010,06,28,08,08,14.80
2010,06,28,08,09,14.80
2010,06,28,08,10,14.80
2010,06,28,08,11,14.90
2010,06,28,08,12,14.90
2010,06,28,08,13,15.00
2010,06,28,08,14,15.10
2010,06,28,08,15,15.10
2010,06,28,08,16,15.20
2010,06,28,08,17,15.30
2010,06,28,08,18,15.30
2010,06,28,08,19,15.30
2010,06,28,08,20,15.30
2010,06,28,08,21,15.30
2010,06,28,08,22,15.30
2010,06,28,08,23,15.30
2010,06,28,08,24,15.20
2010,06,28,08,25,15.10
2010,06,28,08,26,15.10
2010,06,28,08,27,15.10
2010,06,28,08,28,15.10
2010,06,28,08,29,15.10
2010,06,28,08,30,15.10
2010,06,28,08,31,15.00
2010,06,28,08,32,15.10
2010,06,28,08,33,15.10
2010,06,28,08,34,15.10
2010,06,28,08,35,15.10
2010,06,28,08,36,15.00
2010,06,28,08,37,15.00
2010,06,28,08,38,15.00
2010,06,28,08,39,14.90
2010,06,28,08,40,14.80
2010,06,28,08,41,14.80
2010,06,28,08,42,14.70
2010,06,28,08,43,14.60
2010,06,28,08,44,14.60
2010,06,28,08,45,14.50
2010,06,28,08,46,14.40
2010,06,28,08,47,14.40
2010,06,28,08,48,14.40
2010,06,28,08,49,14.40
2010,06,28,08,50,14.40
2010,06,28,08,51,14.40
2010,06,28,08,52,14.50
2010,06,28,08,53,14.60
2010,06,28,08,54,14.60
2010,06,28,08,55,14.70
2010,06,28,08,56,14.80
2010,06,28,08,57,14.90
2010,06,28,08,58,14.90
2010,06,28,08,59,14.90
2010,06,28,09,00,14.90
2010,06,28,09,01,14.80
2010,06,28,09,02,14.80
2010,06,28,09,03,14.80
2010,06,28,09,04,14.80
2010,06,28,09,05,14.80
2010,06,28,09,06,14.80
2010,06,28,09,07,14.80
2010,06,28,09,08,14.80
2010,06,28,09,09,14.90
2010,06,28,09,10,15.00
2010,06,28,09,11,15.00
2010,06,28,09,12,15.00
2010,06,28,09,13,15.10
2010,06,28,09,14,15.20
2010,06,28,09,15,15.20
2010,06,28,09,16,15.20
2010,06,28,09,17,15.00
2010,06,28,09,18,14.90
2010,06,28,09,19,14.80
2010,06,28,09,20,14.80
2010,06,28,09,21,14.80
2010,06,28,09,22,14.80
2010,06,28,09,23,14.80
2010,06,28,09,24,14.90
2010,06,28,09,25,15.00
2010,06,28,09,26,15.00
2010,06,28,09,27,15.10
2010,06,28,09,28,15.20
2010,06,28,09,29,15.30
2010,06,28,09,30,15.40
2010,06,28,09,31,15.50
2010,06,28,09,32,15.50
2010,06,28,09,33,15.60
2010,06,28,09,34,15.60
2010,06,28,09,35,15.60
2010,06,28,09,36,15.60
2010,06,28,09,37,15.70
2010,06,28,09,38,15.70
2010,06,28,09,39,15.70
2010,06,28,09,40,15.70
2010,06,28,09,41,15.50
2010,06,28,09,42,15.40
2010,06,28,09,43,15.30
2010,06,28,09,44,15.20
2010,06,28,09,45,15.20
2010,06,28,09,46,15.10
2010,06,28,09,47,14.90
2010,06,28,09,48,14.80
2010,06,28,09,49,14.70
2010,06,28,09,50,14.60
2010,06,28,09,51,14.50
2010,06,28,09,52,14.50
2010,06,28,09,53,14.50
2010,06,28,09,54,14.40
2010,06,28,09,55,14.50
2010,06,28,09,56,14.50
2010,06,28,09,57,14.50
2010,06,28,09,58,14.60
2010,06,28,09,59,14.60
2010,06,28,10,00,14.70
2010,06,28,10,01,14.70
2010,06,28,10,02,14.70
2010,06,28,10,03,14.80
2010,06,28,10,04,14.80
2010,06,28,10,05,14.80
2010,06,28,10,06,14.80
2010,06,28,10,07,14.80
2010,06,28,10,08,14.80
2010,06,28,10,09,14.80
2010,06,28,10,10,14.80
2010,06,28,10,11,14.80
2010,06,28,10,12,14.80
2010,06,28,10,13,14.80
2010,06,28,10,14,14.80
2010,06,28,10,15,14.80
2010,06,28,10,16,14.80
2010,06,28,10,17,14.90
2010,06,28,10,18,15.00
2010,06,28,10,19,15.00
2010,06,28,10,20,15.00
2010,06,28,10,21,15.00
2010,06,28,10,22,15.10
2010,06,28,10,23,15.20
2010,06,28,10,24,15.20
2010,06,28,10,25,15.20
2010,06,28,10,26,15.20
2010,06,28,10,27,15.20
2010,06,28,10,28,15.20
2010,06,28,10,29,15.20
2010,06,28,10,30,15.30
2010,06,28,10,31,15.30
2010,06,28,10,32,15.30
2010,06,28,10,33,15.30
2010,06,28,10,34,15.40
2010,06,28,10,35,15.40
2010,06,28,10,36,15.40
2010,06,28,10,37,15.50
2010,06,28,10,38,15.50
2010,06,28,10,39,15.60
2010,06,28,10,40,15.60
2010,06,28,10,41,15.60
2010,06,28,10,42,15.70
2010,06,28,10,43,15.70
2010,06,28,10,44,15.60
2010,06,28,10,45,15.50
2010,06,28,10,46,15.40
2010,06,28,10,47,15.30
2010,06,28,10,48,15.30
2010,06,28,10,49,15.40
2010,06,28,10,50,15.50
2010,06,28,10,51,15.60
2010,06,28,10,52,15.60
2010,06,28,10,53,15.50
2010,06,28,10,54,15.50
2010,06,28,10,55,15.50
2010,06,28,10,56,15.60
2010,06,28,10,57,15.60
2010,06,28,10,58,15.70
2010,06,28,10,59,15.70
2010,06,28,11,00,15.90
2010,06,28,11,01,16.00
2010,06,28,11,02,16.10
2010,06,28,11,03,16.10
2010,06,28,11,04,16.10
2010,06,28,11,05,16.10
2010,06,28,11,06,16.10
2010,06,28,11,07,16.00
2010,06,28,11,08,15.80
2010,06,28,11,09,15.80
2010,06,28,11,10,15.80
2010,06,28,11,11,15.80
2010,06,28,11,12,15.90
2010,06,28,11,13,16.00
2010,06,28,11,14,16.20
2010,06,28,11,15,16.20
2010,06,28,11,16,16.10
2010,06,28,11,17,16.20
2010,06,28,11,18,16.30
2010,06,28,11,19,16.40
2010,06,28,11,20,16.40
2010,06,28,11,21,16.40
2010,06,28,11,22,16.50
2010,06,28,11,23,16.50
2010,06,28,11,24,16.40
2010,06,28,11,25,16.50
2010,06,28,11,26,16.60
2010,06,28,11,27,16.60
2010,06,28,11,28,16.70
2010,06,28,11,29,16.70
2010,06,28,11,30,16.80
2010,06,28,11,31,16.90
2010,06,28,11,32,16.90
2010,06,28,11,33,16.90
2010,06,28,11,34,16.90
2010,06,28,11,35,16.80
2010,06,28,11,36,16.70
2010,06,28,11,37,16.70
2010,06,28,11,38,16.70
2010,06,28,11,39,16.70
2010,06,28,11,40,16.50
2010,06,28,11,41,16.30
2010,06,28,11,42,16.20
2010,06,28,11,43,16.30
2010,06,28,11,44,16.40
2010,06,28,11,45,16.50
2010,06,28,11,46,16.60
2010,06,28,11,47,16.70
2010,06,28,11,48,16.80
2010,06,28,11,49,16.90
2010,06,28,11,50,17.00
2010,06,28,11,51,17.00
2010,06,28,11,52,17.00
2010,06,28,11,53,17.00
2010,06,28,11,54,17.00
2010,06,28,11,55,17.00
2010,06,28,11,56,16.90
2010,06,28,11,57,16.90
2010,06,28,11,58,17.00
2010,06,28,11,59,17.00
2010,06,28,12,00,17.00
2010,06,28,12,01,17.10
2010,06,28,12,02,17.10
2010,06,28,12,03,17.10
2010,06,28,12,04,17.10
2010,06,28,12,05,17.10
2010,06,28,12,06,17.10
2010,06,28,12,07,17.00
2010,06,28,12,08,17.10
2010,06,28,12,09,17.00
2010,06,28,12,10,17.00
2010,06,28,12,11,17.00
2010,06,28,12,12,17.00
2010,06,28,12,13,17.10
2010,06,28,12,14,17.10
2010,06,28,12,15,17.20
2010,06,28,12,16,17.20
2010,06,28,12,17,17.20
2010,06,28,12,18,17.10
2010,06,28,12,19,17.10
2010,06,28,12,20,17.10
2010,06,28,12,21,17.10
2010,06,28,12,22,17.10
2010,06,28,12,23,17.10
2010,06,28,12,24,17.20
2010,06,28,12,25,17.10
2010,06,28,12,26,17.00
2010,06,28,12,27,16.80
2010,06,28,12,28,16.60
2010,06,28,12,29,16.50
2010,06,28,12,30,16.40
2010,06,28,12,31,16.40
2010,06,28,12,32,16.40
2010,06,28,12,33,16.30
2010,06,28,12,34,16.10
2010,06,28,12,35,16.00
2010,06,28,12,36,15.90
2010,06,28,12,37,15.80
2010,06,28,12,38,15.80
2010,06,28,12,39,15.90
2010,06,28,12,40,15.90
2010,06,28,12,41,15.90
2010,06,28,12,42,15.90
2010,06,28,12,43,15.90
2010,06,28,12,44,15.90
2010,06,28,12,45,15.90
2010,06,28,12,46,15.90
2010,06,28,12,47,15.90
2010,06,28,12,48,16.00
2010,06,28,12,49,16.00
2010,06,28,12,50,16.00
2010,06,28,12,51,15.90
2010,06,28,12,52,15.70
2010,06,28,12,53,15.60
2010,06,28,12,54,15.50
2010,06,28,12,55,15.50
2010,06,28,12,56,15.40
2010,06,28,12,57,15.30
2010,06,28,12,58,15.20
2010,06,28,12,59,15.10
2010,06,28,13,00,15.00
2010,06,28,13,01,14.90
2010,06,28,13,02,14.80
2010,06,28,13,03,14.80
2010,06,28,13,04,14.80
2010,06,28,13,05,14.80
2010,06,28,13,06,14.80
2010,06,28,13,07,14.80
2010,06,28,13,08,14.80
2010,06,28,13,09,14.80
2010,06,28,13,10,14.80
2010,06,28,13,11,14.80
2010,06,28,13,12,14.80
2010,06,28,13,13,14.80
2010,06,28,13,14,14.80
2010,06,28,13,15,14.80
2010,06,28,13,16,14.80
2010,06,28,13,17,14.80
2010,06,28,13,18,14.80
2010,06,28,13,19,14.80
2010,06,28,13,20,15.00
2010,06,28,13,21,15.00
2010,06,28,13,22,15.10
2010,06,28,13,23,15.10
2010,06,28,13,24,15.20
2010,06,28,13,25,15.30
2010,06,28,13,26,15.30
2010,06,28,13,27,15.40
2010,06,28,13,28,15.40
2010,06,28,13,29,15.50
2010,06,28,13,30,15.50
2010,06,28,13,31,15.60
2010,06,28,13,32,15.60
2010,06,28,13,33,15.80
2010,06,28,13,34,15.80
2010,06,28,13,35,15.80
2010,06,28,13,36,15.80
2010,06,28,13,37,15.80
2010,06,28,13,38,15.80
2010,06,28,13,39,15.80
2010,06,28,13,40,15.80
2010,06,28,13,41,15.80
2010,06,28,13,42,15.80
2010,06,28,13,43,15.80
2010,06,28,13,44,15.80
2010,06,28,13,45,15.80
2010,06,28,13,46,15.80
2010,06,28,13,47,15.80
2010,06,28,13,48,15.80
2010,06,28,13,49,15.80
2010,06,28,13,50,15.90
2010,06,28,13,51,15.90
2010,06,28,13,52,15.90
2010,06,28,13,53,15.90
2010,06,28,13,54,15.90
2010,06,28,13,55,15.90
2010,06,28,13,56,15.90
2010,06,28,13,57,15.80
2010,06,28,13,58,15.80
2010,06,28,13,59,15.80
2010,06,28,14,00,15.80
2010,06,28,14,01,15.70
2010,06,28,14,02,15.70
2010,06,28,14,03,15.70
2010,06,28,14,04,15.70
2010,06,28,14,05,15.80
2010,06,28,14,06,15.80
2010,06,28,14,07,15.70
2010,06,28,14,08,15.80
2010,06,28,14,09,15.90
2010,06,28,14,10,16.00
2010,06,28,14,11,16.10
2010,06,28,14,12,16.20
2010,06,28,14,13,16.30
2010,06,28,14,14,16.30
2010,06,28,14,15,16.30
2010,06,28,14,16,16.20
2010,06,28,14,17,16.30
2010,06,28,14,18,16.30
2010,06,28,14,19,16.10
2010,06,28,14,20,16.20
2010,06,28,14,21,16.30
2010,06,28,14,22,16.40
2010,06,28,14,23,16.60
2010,06,28,14,24,16.70
2010,06,28,14,25,16.90
2010,06,28,14,26,17.00
2010,06,28,14,27,17.20
2010,06,28,14,28,17.30
2010,06,28,14,29,17.40
2010,06,28,14,30,17.40
2010,06,28,14,31,17.30
2010,06,28,14,32,17.30
2010,06,28,14,33,17.40
2010,06,28,14,34,17.50
2010,06,28,14,35,17.60
2010,06,28,14,36,17.50
2010,06,28,14,37,17.40
2010,06,28,14,38,17.30
2010,06,28,14,39,17.30
2010,06,28,14,40,17.30
2010,06,28,14,41,17.30
2010,06,28,14,42,17.10
2010,06,28,14,43,17.10
2010,06,28,14,44,17.10
2010,06,28,14,45,17.30
2010,06,28,14,46,17.30
2010,06,28,14,47,17.30
2010,06,28,14,48,17.30
2010,06,28,14,49,17.30
2010,06,28,14,50,17.30
2010,06,28,14,51,17.30
2010,06,28,14,52,17.40
2010,06,28,14,53,17.50
2010,06,28,14,54,17.70
2010,06,28,14,55,17.70
2010,06,28,14,56,17.80
2010,06,28,14,57,17.90
2010,06,28,14,58,17.90
2010,06,28,14,59,17.90
2010,06,28,15,00,17.90
2010,06,28,15,01,17.90
2010,06,28,15,02,17.90
2010,06,28,15,03,17.90
2010,06,28,15,04,17.90
2010,06,28,15,05,18.00
2010,06,28,15,06,18.10
2010,06,28,15,07,18.00
2010,06,28,15,08,17.80
2010,06,28,15,09,17.60
2010,06,28,15,10,17.50
2010,06,28,15,11,17.40
2010,06,28,15,12,17.40
2010,06,28,15,13,17.40
2010,06,28,15,14,17.40
2010,06,28,15,15,17.30
2010,06,28,15,16,17.10
2010,06,28,15,17,16.90
2010,06,28,15,18,16.90
2010,06,28,15,19,16.80
2010,06,28,15,20,16.80
2010,06,28,15,21,16.90
2010,06,28,15,22,17.00
2010,06,28,15,23,17.10
2010,06,28,15,24,17.20
2010,06,28,15,25,17.30
2010,06,28,15,26,17.50
2010,06,28,15,27,17.60
2010,06,28,15,28,17.60
2010,06,28,15,29,17.50
2010,06,28,15,30,17.40
2010,06,28,15,31,17.30
2010,06,28,15,32,17.20
2010,06,28,15,33,17.20
2010,06,28,15,34,17.20
2010,06,28,15,35,17.00
2010,06,28,15,36,16.90
2010,06,28,15,37,16.80
2010,06,28,15,38,16.80
2010,06,28,15,39,16.80
2010,06,28,15,40,16.80
2010,06,28,15,41,16.80
2010,06,28,15,42,16.70
2010,06,28,15,43,16.70
2010,06,28,15,44,16.70
2010,06,28,15,45,16.80
2010,06,28,15,46,16.80
2010,06,28,15,47,16.80
2010,06,28,15,48,16.80
2010,06,28,15,49,16.80
2010,06,28,15,50,16.90
2010,06,28,15,51,17.00
2010,06,28,15,52,17.00
2010,06,28,15,53,17.10
2010,06,28,15,54,17.20
2010,06,28,15,55,17.30
2010,06,28,15,56,17.40
2010,06,28,15,57,17.50
2010,06,28,15,58,17.60
2010,06,28,15,59,17.60
2010,06,28,16,00,17.60
2010,06,28,16,01,17.50
2010,06,28,16,02,17.50
2010,06,28,16,03,17.60
2010,06,28,16,04,17.60
2010,06,28,16,05,17.60
2010,06,28,16,06,17.60
2010,06,28,16,07,17.60
2010,06,28,16,08,17.70
2010,06,28,16,09,17.70
2010,06,28,16,10,17.70
2010,06,28,16,11,17.70
2010,06,28,16,12,17.60
2010,06,28,16,13,17.60
2010,06,28,16,14,17.50
2010,06,28,16,15,17.50
2010,06,28,16,16,17.50
2010,06,28,16,17,17.40
2010,06,28,16,18,17.40
2010,06,28,16,19,17.30
2010,06,28,16,20,17.30
2010,06,28,16,21,17.30
2010,06,28,16,22,17.30
2010,06,28,16,23,17.20
2010,06,28,16,24,17.20
2010,06,28,16,25,17.20
2010,06,28,16,26,17.20
2010,06,28,16,27,17.20
2010,06,28,16,28,17.30
2010,06,28,16,29,17.30
2010,06,28,16,30,17.30
2010,06,28,16,31,17.30
2010,06,28,16,32,17.30
2010,06,28,16,33,17.30
2010,06,28,16,34,17.30
2010,06,28,16,35,17.30
2010,06,28,16,36,17.30
2010,06,28,16,37,17.30
2010,06,28,16,38,17.30
2010,06,28,16,39,17.30
2010,06,28,16,40,17.30
2010,06,28,16,41,17.20
2010,06,28,16,42,17.20
2010,06,28,16,43,17.10
2010,06,28,16,44,17.00
2010,06,28,16,45,16.90
2010,06,28,16,46,16.90
2010,06,28,16,47,16.80
2010,06,28,16,48,16.80
2010,06,28,16,49,16.90
2010,06,28,16,50,17.00
2010,06,28,16,51,17.10
2010,06,28,16,52,17.10
2010,06,28,16,53,17.20
2010,06,28,16,54,17.20
2010,06,28,16,55,17.30
2010,06,28,16,56,17.20
2010,06,28,16,57,17.20
2010,06,28,16,58,17.20
2010,06,28,16,59,17.30
2010,06,28,17,00,17.30
2010,06,28,17,01,17.30
2010,06,28,17,02,17.30
2010,06,28,17,03,17.30
2010,06,28,17,04,17.30
2010,06,28,17,05,17.30
2010,06,28,17,06,17.30
2010,06,28,17,07,17.30
2010,06,28,17,08,17.40
2010,06,28,17,09,17.40
2010,06,28,17,10,17.40
2010,06,28,17,11,17.50
2010,06,28,17,12,17.50
2010,06,28,17,13,17.50
2010,06,28,17,14,17.50
2010,06,28,17,15,17.40
2010,06,28,17,16,17.40
2010,06,28,17,17,17.40
2010,06,28,17,18,17.30
2010,06,28,17,19,17.30
2010,06,28,17,20,17.30
2010,06,28,17,21,17.30
2010,06,28,17,22,17.30
2010,06,28,17,23,17.30
2010,06,28,17,24,17.30
2010,06,28,17,25,17.30
2010,06,28,17,26,17.30
2010,06,28,17,27,17.30
2010,06,28,17,28,17.40
2010,06,28,17,29,17.40
2010,06,28,17,30,17.50
2010,06,28,17,31,17.50
2010,06,28,17,32,17.60
2010,06,28,17,33,17.70
2010,06,28,17,34,17.70
2010,06,28,17,35,17.80
2010,06,28,17,36,17.80
2010,06,28,17,37,17.90
2010,06,28,17,38,17.90
2010,06,28,17,39,17.90
2010,06,28,17,40,17.90
2010,06,28,17,41,17.80
2010,06,28,17,42,17.80
2010,06,28,17,43,17.70
2010,06,28,17,44,17.60
2010,06,28,17,45,17.50
2010,06,28,17,46,17.50
2010,06,28,17,47,17.40
2010,06,28,17,48,17.40
2010,06,28,17,49,17.30
2010,06,28,17,50,17.20
2010,06,28,17,51,17.10
2010,06,28,17,52,17.10
2010,06,28,17,53,17.00
2010,06,28,17,54,16.90
2010,06,28,17,55,16.80
2010,06,28,17,56,16.70
2010,06,28,17,57,16.70
2010,06,28,17,58,16.70
2010,06,28,17,59,16.70
2010,06,28,18,00,16.70
2010,06,28,18,01,16.60
2010,06,28,18,02,16.40
2010,06,28,18,03,16.30
2010,06,28,18,04,16.20
2010,06,28,18,05,16.20
2010,06,28,18,06,16.20
2010,06,28,18,07,16.10
2010,06,28,18,08,16.10
2010,06,28,18,09,16.10
2010,06,28,18,10,16.00
2010,06,28,18,11,15.90
2010,06,28,18,12,15.90
2010,06,28,18,13,15.90
2010,06,28,18,14,15.80
2010,06,28,18,15,15.80
2010,06,28,18,16,15.80
2010,06,28,18,17,15.80
2010,06,28,18,18,15.80
2010,06,28,18,19,15.70
2010,06,28,18,20,15.70
2010,06,28,18,21,15.60
2010,06,28,18,22,15.60
2010,06,28,18,23,15.70
2010,06,28,18,24,15.70
2010,06,28,18,25,15.70
2010,06,28,18,26,15.70
2010,06,28,18,27,15.70
2010,06,28,18,28,15.60
2010,06,28,18,29,15.60
2010,06,28,18,30,15.60
2010,06,28,18,31,15.50
2010,06,28,18,32,15.50
2010,06,28,18,33,15.50
2010,06,28,18,34,15.40
2010,06,28,18,35,15.50
2010,06,28,18,36,15.50
2010,06,28,18,37,15.40
2010,06,28,18,38,15.40
2010,06,28,18,39,15.40
2010,06,28,18,40,15.40
2010,06,28,18,41,15.30
2010,06,28,18,42,15.30
2010,06,28,18,43,15.30
2010,06,28,18,44,15.30
2010,06,28,18,45,15.30
2010,06,28,18,46,15.20
2010,06,28,18,47,15.10
2010,06,28,18,48,15.10
2010,06,28,18,49,15.00
2010,06,28,18,50,15.00
2010,06,28,18,51,15.00
2010,06,28,18,52,15.10
2010,06,28,18,53,15.10
2010,06,28,18,54,15.20
2010,06,28,18,55,15.20
2010,06,28,18,56,15.20
2010,06,28,18,57,15.30
2010,06,28,18,58,15.30
2010,06,28,18,59,15.30
2010,06,28,19,00,15.30
2010,06,28,19,01,15.30
2010,06,28,19,02,15.40
2010,06,28,19,03,15.50
2010,06,28,19,04,15.50
2010,06,28,19,05,15.60
2010,06,28,19,06,15.70
2010,06,28,19,07,15.80
2010,06,28,19,08,16.00
2010,06,28,19,09,16.10
2010,06,28,19,10,16.30
2010,06,28,19,11,16.40
2010,06,28,19,12,16.60
2010,06,28,19,13,16.80
2010,06,28,19,14,17.00
2010,06,28,19,15,17.10
2010,06,28,19,16,17.20
2010,06,28,19,17,17.30
2010,06,28,19,18,17.30
2010,06,28,19,19,17.30
2010,06,28,19,20,17.30
2010,06,28,19,21,17.30
2010,06,28,19,22,17.30
2010,06,28,19,23,17.30
2010,06,28,19,24,17.30
2010,06,28,19,25,17.30
2010,06,28,19,26,17.40
2010,06,28,19,27,17.40
2010,06,28,19,28,17.40
2010,06,28,19,29,17.40
2010,06,28,19,30,17.40
2010,06,28,19,31,17.40
2010,06,28,19,32,17.40
2010,06,28,19,33,17.40
2010,06,28,19,34,17.40
2010,06,28,19,35,17.40
2010,06,28,19,36,17.40
2010,06,28,19,37,17.40
2010,06,28,19,38,17.40
2010,06,28,19,39,17.40
2010,06,28,19,40,17.30
2010,06,28,19,41,17.30
2010,06,28,19,42,17.30
2010,06,28,19,43,17.30
2010,06,28,19,44,17.20
2010,06,28,19,45,17.10
2010,06,28,19,46,17.10
2010,06,28,19,47,17.10
2010,06,28,19,48,17.00
2010,06,28,19,49,17.00
2010,06,28,19,50,16.90
2010,06,28,19,51,16.90
2010,06,28,19,52,16.90
2010,06,28,19,53,16.80
2010,06,28,19,54,16.80
2010,06,28,19,55,16.80
2010,06,28,19,56,16.80
2010,06,28,19,57,16.80
2010,06,28,19,58,16.80
2010,06,28,19,59,16.80
2010,06,28,20,00,16.70
2010,06,28,20,01,16.70
2010,06,28,20,02,16.70
2010,06,28,20,03,16.60
2010,06,28,20,04,16.60
2010,06,28,20,05,16.60
2010,06,28,20,06,16.50
2010,06,28,20,07,16.40
2010,06,28,20,08,16.40
2010,06,28,20,09,16.30
2010,06,28,20,10,16.20
2010,06,28,20,11,16.20
2010,06,28,20,12,16.20
2010,06,28,20,13,16.10
2010,06,28,20,14,16.10
2010,06,28,20,15,16.10
2010,06,28,20,16,16.00
2010,06,28,20,17,15.90
2010,06,28,20,18,15.90
2010,06,28,20,19,15.90
2010,06,28,20,20,15.90
2010,06,28,20,21,15.80
2010,06,28,20,22,15.80
2010,06,28,20,23,15.80
2010,06,28,20,24,15.80
2010,06,28,20,25,15.80
2010,06,28,20,26,15.80
2010,06,28,20,27,15.80
2010,06,28,20,28,15.80
2010,06,28,20,29,15.80
2010,06,28,20,30,15.70
2010,06,28,20,31,15.70
2010,06,28,20,32,15.60
2010,06,28,20,33,15.60
2010,06,28,20,34,15.60
2010,06,28,20,35,15.60
2010,06,28,20,36,15.60
2010,06,28,20,37,15.50
2010,06,28,20,38,15.50
2010,06,28,20,39,15.40
2010,06,28,20,40,15.40
2010,06,28,20,41,15.30
2010,06,28,20,42,15.30
2010,06,28,20,43,15.30
2010,06,28,20,44,15.30
2010,06,28,20,45,15.30
2010,06,28,20,46,15.30
2010,06,28,20,47,15.30
2010,06,28,20,48,15.30
2010,06,28,20,49,15.30
2010,06,28,20,50,15.40
2010,06,28,20,51,15.40
2010,06,28,20,52,15.40
2010,06,28,20,53,15.40
2010,06,28,20,54,15.40
2010,06,28,20,55,15.40
2010,06,28,20,56,15.30
2010,06,28,20,57,15.30
2010,06,28,20,58,15.30
2010,06,28,20,59,15.30
2010,06,28,21,00,15.30
2010,06,28,21,01,15.30
2010,06,28,21,02,15.30
2010,06,28,21,03,15.30
2010,06,28,21,04,15.30
2010,06,28,21,05,15.30
2010,06,28,21,06,15.30
2010,06,28,21,07,15.30
2010,06,28,21,08,15.30
2010,06,28,21,09,15.30
2010,06,28,21,10,15.30
2010,06,28,21,11,15.30
